SL-16 DEB, 22379

Orbit data source: Space-Track

SL-16 DEB, 22379 is space debris in LEO originally from a launch on Fri, 25 Dec 1992 UTC launched from the Tyuratam Missile And Space Complex (TTMTR). Debris objects in space refer to the collection of defunct objects orbiting the Earth. Examples of debris include non-operational satellites, rocket bodies, and fragments generated from explosions, collisions, or faulty payload assembly.

Loading next visibility...
Identifier
22379, 1992-093BU
Orbit
LEO
Country
Flag of CISCIS
Related business
Manufacturer
Unknown
Mission
Spacecraft
Bus & Motor
Unknown
Mass
Unknown
Launch date (UTC)
1992-12-25 (33 years ago)
Launch vehicle
Unknown
Launch site
Tyuratam Missile And Space Complex (TTMTR)
Object type
Payload
Rocket body
Debris
Shape & HBR
Unknown shape, 0.2 m
Radar Cross Section
Small (<0.1 m²)

Expand to show TLE details & history
Last TLE update: 6 hours ago

TLE from 6 hours ago
0 SL-16 DEB
1 22379U 92093BU  25353.28456675  .00000679  00000-0  39266-3 0  9998
2 22379  70.7043 347.7099 0081613  39.7295 320.9762 14.10981087684836
Epoch: 2025-12-19T06:49Z
TLE epoch observation values (Epoch: 2025-12-19T06:49:46.567Z)
Latitude
0.00003°
Longitude
157.13796°
Altitude
812.712 km
Speed
7.471 km/s
True Right ascension
23h 10m 50s
True Declination
0° 00' 00"
Sunlit
Object was in daylight at epoch
Visualization orbit readout
Latitude
Unknown
Longitude
Unknown
Altitude
Unknown
Speed
Unknown
Apparent Right ascension
Unknown
Apparent Declination
Unknown
Sunlit
N/A
Visualization observer readout
Local Sidereal Time
11:30:16
Azimuth
Unknown
Elevation
Unknown
Doppler factor
Unknown
Orbital elements
Apogee altitude
912.998 km
Perigee altitude
794.951 km
Semi-major axis
7,232.111 km
Eccentricity
0.00816
Inclination
70.7043°
RAAN
347.7099°
Arg. of periapsis
39.7295°
True anomaly
320.38266°
Mean anomaly
320.9762°
Eccentric anomaly
320.6799°
Mean motion
3.52895 °/min
Orbital period
102.01 mins
BSTAR
0.00039266
Loading maneuver chart data...
Computing Atmospheric mass density...
Loading historical data...
Loading historical data...
Loading historical data...
Loading historical data...
Loading historical data...
Loading historical data...
Loading historical data...

Documentation

Showing up to 5 results
|